Wetbulb
51.26 51.43 51.14 51.54 51.60 52.01 51.93 51.68 51.51 51.14 51.02 50.92 50.78 50.18 49.68 49.65 49.91 50.42 51.40 56.56 58.82 59.83 60.08 60.63 60.73 61.08 60.57 61.49 62.21 63.05 63.62 64.65 65.50 68.34 69.20 70.25 69.38 69.05 69.63 70.81 70.46 69.67 69.00
51.59 51.53 51.37 51.28 51.38 51.83 51.30 51.18 51.01 50.82 50.25 50.69 50.19 49.94 49.42 49.70 49.48 49.68 50.28 51.92 57.38 60.00 61.03 62.83 62.32 60.68 59.89 60.68 61.53 62.05 62.16 63.06 64.12 65.87 68.01 68.69 69.22 69.63 69.73 69.92 70.37 70.03 69.27
51.74 51.59 51.16 51.12 50.84 51.10 50.67 50.81 50.64 50.80 50.61 50.25 50.02 49.82 49.13 49.15 49.58 49.20 49.54 50.44 50.80 52.61 56.54 58.44 60.95 62.36 62.72 62.27 61.53 60.89 61.05 62.03 61.88 63.09 66.43 68.11 68.42 68.63 69.41 69.69 69.94 70.02 69.64
51.49 51.53 51.61 51.50 51.26 51.35 51.46 51.15 51.05 50.63 49.97 49.92 49.93 50.15 49.14 49.32 49.00 48.84 49.07 49.57 50.44 49.49 50.74 54.90 56.24 58.06 59.64 60.35 60.76 61.64 62.21 61.61 61.55 61.37 62.22 64.74 67.55 67.96 68.51 68.97 69.47 69.67 69.67
51.39 51.78 51.82 51.61 51.68 51.45 51.46 51.45 50.59 50.61 50.16 49.98 49.68 49.91 49.52 49.26 48.44 48.03 48.49 48.89 49.50 49.44 49.41 50.49 51.70 52.69 55.30 57.44 58.69 60.01 59.95 60.52 61.40 61.71 61.36 62.40 62.74 63.83 65.41 67.56 68.39 69.32 69.50
51.17 51.75 51.60 51.26 51.23 51.07 50.58 50.66 50.30 49.88 49.73 48.75 47.97 48.53 49.31 48.61 48.73 48.65 47.79 48.40 48.60 48.87 48.92 49.45 49.40 49.01 51.60 53.84 54.98 57.35 58.00 58.83 59.47 60.38 60.85 59.85 59.54 60.65 61.73 63.71 66.52 67.88 69.13
51.56 51.62 51.50 50.99 50.95 50.91 50.78 50.29 49.88 48.96 48.94 48.11 48.39 48.65 48.81 48.19 48.03 47.66 48.38 48.99 48.19 48.70 48.16 48.46 48.29 48.24 48.35 49.75 50.72 53.44 54.85 56.30 57.61 58.86 59.50 59.46 59.49 59.38 60.07 60.47 62.64 65.49 67.33
51.42 51.00 51.34 50.64 50.32 50.18 49.45 49.00 49.07 48.66 48.51 48.02 47.26 45.66 44.55 47.11 47.74 47.34 48.24 47.39 47.01 47.90 47.63 47.32 47.37 47.42 47.87 48.21 48.55 49.95 50.76 53.29 55.42 56.69 57.93 58.83 58.96 58.99 59.43 60.40 60.74 62.09 65.19
50.74 50.79 50.82 50.65 50.16 49.79 49.36 48.48 48.05 47.90 47.46 46.83 46.05 46.91 43.30 42.24 43.01 47.12 46.49 46.74 46.68 47.05 47.06 46.90 46.69 46.82 46.98 47.44 48.02 48.17 49.03 51.28 53.14 54.93 56.29 57.45 58.21 58.34 58.95 59.30 60.11 60.38 62.42
50.31 50.04 49.87 49.49 49.29 48.90 48.24 48.10 47.51 47.60 47.05 46.20 45.83 45.47 45.76 44.75 41.09 40.42 44.92 45.36 46.32 45.06 45.95 46.02 45.97 46.19 46.55 46.88 47.32 47.97 49.09 50.11 51.25 52.89 54.74 56.42 57.28 58.09 58.01 58.56 59.35 59.97 60.50
49.25 48.73 48.79 48.42 48.08 47.98 47.82 47.32 46.70 46.27 46.73 46.51 45.55 44.89 44.08 43.59 43.01 40.42 38.63 41.57 43.53 44.62 45.15 44.90 45.27 45.56 46.04 46.55 46.86 47.34 48.55 49.71 50.95 52.21 53.39 54.57 55.60 56.81 57.76 58.21 58.52 59.22 59.95
48.77 47.61 47.57 48.11 47.75 47.37 46.82 46.80 46.53 45.54 45.33 44.76 44.70 44.11 43.35 42.07 41.65 40.59 39.03 39.94 40.21 41.97 43.63 44.47 44.56 44.84 45.58 46.14 46.61 47.68 49.01 49.82 50.47 51.29 52.28 52.97 53.99 55.25 56.55 57.60 58.30 58.57 58.92
47.28 46.50 46.55 46.43 46.45 46.19 45.98 45.94 45.32 44.85 44.44 43.73 43.96 43.48 43.39 42.71 42.99 41.75 40.16 39.10 38.61 40.97 41.68 43.38 43.88 44.64 44.83 45.76 46.27 47.19 48.07 49.29 49.97 50.71 51.46 52.01 52.33 52.79 54.11 55.88 57.05 57.87 58.25
46.31 45.72 45.38 45.20 44.58 44.39 44.43 44.28 44.24 43.88 43.33 42.62 42.09 41.91 41.61 41.88 41.99 41.40 40.00 38.58 36.56 38.33 40.08 40.56 43.42 43.86 44.63 45.36 46.21 47.52 47.47 49.01 49.49 49.90 50.23 51.17 51.57 51.90 52.56 53.61 54.96 56.36 57.06
44.96 43.85 43.45 43.34 43.11 43.07 42.83 42.45 42.30 41.93 41.59 41.36 41.08 40.97 40.42 40.87 41.12 41.02 40.68 40.16 37.60 34.58 36.57 40.22 40.37 43.63 44.46 45.28 45.82 46.16 46.56 47.72 48.46 48.41 48.76 49.42 50.15 51.03 51.81 52.78 53.56 54.33 55.28
43.14 42.86 42.72 42.51 42.30 41.94 41.64 41.21 40.99 40.95 40.03 40.41 40.27 39.94 40.12 40.29 40.31 40.56 40.20 40.04 39.55 37.48 35.39 40.30 41.23 42.94 43.82 43.95 45.38 45.87 46.08 47.37 47.95 48.25 48.36 48.63 49.35 50.05 50.92 51.56 52.30 53.11 53.83
42.20 41.87 41.46 41.20 40.95 41.03 41.17 40.33 40.12 39.88 39.30 39.71 39.97 39.46 39.34 40.40 40.00 40.33 40.43 40.14 39.36 39.33 36.63 39.94 41.40 42.41 42.25 42.65 43.79 44.92 45.21 45.34 45.87 47.51 47.89 48.10 48.39 49.01 49.74 50.34 51.08 52.03 52.76
41.09 40.74 40.40 40.22 40.08 40.01 40.28 39.64 39.27 39.58 38.79 38.51 38.94 39.26 39.23 40.14 40.15 40.84 40.28 39.76 39.66 40.20 38.68 36.29 39.76 40.46 41.44 42.70 42.85 42.94 43.64 44.20 44.70 45.92 47.28 47.75 47.98 48.34 48.81 49.49 49.93 50.57 51.12
40.27 40.23 39.70 39.34 39.29 39.48 39.34 39.55 39.16 38.66 38.53 38.57 38.75 38.94 39.22 39.83 39.25 39.84 40.11 39.82 40.15 40.08 40.07 38.43 38.69 41.09 41.72 42.33 41.64 42.62 42.68 43.32 44.04 45.46 46.42 47.26 47.82 48.38 48.91 49.24 49.41 50.30 50.99
39.30 39.65 39.42 38.83 38.72 38.77 38.55 38.40 38.22 38.19 38.93 39.39 39.79 39.92 40.03 39.83 39.50 40.00 40.17 40.15 40.22 38.68 38.63 37.52 37.67 39.17 40.20 41.47 41.28 40.29 40.67 41.86 41.99 44.01 44.99 45.96 46.56 47.14 48.28 49.18 49.52 50.31 50.23
39.23 38.74 38.31 38.74 38.57 37.92 37.85 38.89 40.09 40.35 39.87 39.48 40.03 40.26 40.60 41.52 43.83 44.19 41.42 39.49 38.79 38.83 37.85 37.62 37.05 36.92 38.00 38.42 38.16 40.47 40.03 40.51 41.43 43.69 43.71 44.49 45.07 45.90 47.20 48.73 48.98 50.17 50.21
38.85 38.58 38.28 37.36 36.59 37.07 39.87 41.97 41.39 39.87 40.35 40.36 40.17 41.07 42.09 43.41 43.38 44.67 45.10 45.68 44.31 41.35 39.94 39.65 36.73 37.10 37.15 38.76 39.89 39.90 39.68 38.23 36.35 44.64 43.16 42.93 44.78 44.09 45.35 46.05 47.17 48.22 49.50
38.20 37.58 37.13 36.50 36.59 37.51 40.18 41.53 42.30 41.03 40.07 40.53 40.61 40.29 40.26 40.80 42.63 41.72 43.38 44.50 43.73 44.46 44.31 42.75 40.46 39.65 39.49 40.38 41.00 39.73 40.00 40.41 39.91 42.56 42.25 40.77 43.75 42.68 45.24 45.50 45.79 46.33 47.34
37.17 36.57 35.86 36.37 36.53 36.61 39.79 41.56 42.42 40.56 39.77 39.05 39.49 40.14 40.62 40.98 41.82 41.15 40.30 39.74 40.40 41.51 42.13 42.19 41.96 41.94 42.58 42.93 42.55 41.84 41.36 41.48 42.73 43.30 43.59 38.47 42.85 42.27 44.43 45.42 45.60 45.78 46.66
36.33 35.58 35.99 35.90 35.45 35.33 39.18 41.33 40.99 38.91 39.54 39.53 40.20 41.11 40.97 41.28 43.07 44.09 40.87 40.47 40.17 40.28 43.27 45.51 45.10 45.16 45.36 45.05 44.24 41.75 40.32 39.33 37.66 39.90 42.64 41.23 42.17 42.13 42.93 43.83 45.30 45.33 45.98
34.58 35.43 35.18 35.43 36.16 35.86 38.82 40.77 40.70 38.43 38.30 39.19 39.75 39.75 41.98 42.23 43.94 43.89 41.43 41.26 39.43 39.77 39.84 40.02 40.78 41.56 42.61 42.68 43.84 43.11 41.52 37.12 37.25 36.91 41.81 40.50 40.37 40.89 38.71 43.59 44.60 45.61 45.79
MSLP
1021.70 1022.03 1022.22 1022.37 1022.46 1022.42 1022.31 1022.34 1022.43 1022.50 1022.44 1022.31 1022.29 1022.17 1022.09 1022.11 1021.96 1021.85 1021.83 1021.45 1021.05 1020.71 1020.40 1020.16 1019.87 1019.70 1019.65 1019.56 1019.52 1019.51 1019.42 1019.31 1019.19 1019.05 1018.95 1018.87 1018.86 1019.01 1019.14 1019.25 1019.34 1019.53 1019.65
1021.79 1021.98 1022.28 1022.58 1022.67 1022.72 1022.81 1022.84 1022.83 1022.91 1022.99 1022.73 1022.72 1022.58 1022.55 1022.39 1022.41 1022.35 1022.18 1022.10 1021.71 1021.19 1020.93 1020.49 1020.06 1019.81 1019.80 1019.73 1019.71 1019.65 1019.59 1019.41 1019.25 1019.12 1019.05 1018.99 1018.93 1018.90 1019.03 1019.23 1019.31 1019.47 1019.62
1021.94 1022.15 1022.33 1022.51 1022.80 1022.91 1023.07 1023.13 1023.20 1023.24 1023.24 1023.22 1023.00 1022.84 1022.92 1022.85 1022.68 1022.62 1022.67 1022.54 1022.34 1022.14 1021.81 1021.23 1020.77 1020.47 1020.23 1020.07 1019.92 1019.77 1019.67 1019.58 1019.38 1019.24 1019.13 1019.03 1018.94 1018.89 1018.90 1019.03 1019.22 1019.32 1019.47
1022.10 1022.29 1022.41 1022.76 1023.06 1023.17 1023.24 1023.26 1023.25 1023.25 1023.38 1023.33 1023.05 1022.86 1022.91 1022.90 1022.82 1022.79 1022.83 1022.87 1022.80 1022.75 1022.44 1022.11 1021.67 1021.23 1021.17 1020.84 1020.50 1020.27 1019.89 1019.65 1019.54 1019.40 1019.23 1019.11 1019.03 1018.95 1018.91 1018.95 1018.98 1019.14 1019.35
1022.13 1022.22 1022.54 1022.82 1023.10 1023.22 1023.26 1023.26 1023.48 1023.39 1023.29 1023.32 1023.04 1022.83 1022.81 1022.93 1022.87 1022.88 1022.79 1022.93 1023.06 1023.03 1022.84 1022.61 1022.45 1022.14 1021.70 1021.40 1020.95 1020.61 1020.33 1020.07 1019.86 1019.52 1019.42 1019.33 1019.19 1019.03 1018.95 1018.88 1018.87 1018.89 1019.03
1022.16 1022.30 1022.54 1022.83 1023.00 1023.08 1023.20 1023.25 1023.27 1023.55 1023.55 1023.51 1023.17 1022.93 1023.03 1023.15 1023.23 1023.15 1023.06 1023.06 1023.09 1023.05 1022.89 1022.75 1022.61 1022.39 1022.33 1021.95 1021.60 1021.21 1020.81 1020.46 1020.07 1019.77 1019.48 1019.26 1019.22 1019.11 1018.97 1018.89 1018.85 1018.75 1018.75
1022.07 1022.27 1022.45 1022.66 1022.83 1022.83 1022.92 1023.17 1023.43 1023.51 1023.59 1023.59 1023.27 1022.92 1022.88 1022.97 1022.88 1022.85 1022.99 1022.89 1022.84 1022.84 1022.75 1022.63 1022.58 1022.42 1022.29 1022.32 1022.07 1021.61 1021.29 1020.83 1020.35 1020.01 1019.66 1019.41 1019.28 1019.20 1019.05 1018.90 1018.84 1018.77 1018.64
1021.83 1022.02 1022.20 1022.45 1022.75 1022.87 1023.04 1023.23 1023.35 1023.44 1023.60 1023.72 1023.30 1023.39 1022.88 1022.67 1022.66 1022.76 1022.44 1022.56 1022.53 1022.71 1022.46 1022.47 1022.34 1022.23 1022.19 1022.08 1021.95 1021.84 1021.60 1021.09 1020.57 1020.15 1019.78 1019.47 1019.25 1019.15 1019.03 1018.87 1018.82 1018.75 1018.61
1021.79 1021.98 1022.11 1022.24 1022.46 1022.76 1022.86 1023.10 1023.31 1023.42 1023.32 1023.66 1023.58 1023.35 1023.11 1022.70 1022.82 1022.30 1022.21 1022.37 1022.29 1022.19 1022.03 1022.18 1022.06 1022.00 1021.91 1021.81 1021.78 1021.47 1021.32 1021.04 1020.75 1020.27 1019.81 1019.46 1019.19 1019.06 1018.95 1018.84 1018.75 1018.67 1018.54
1021.58 1021.85 1022.08 1022.34 1022.47 1022.67 1022.77 1022.92 1023.15 1023.22 1023.30 1023.17 1023.57 1023.53 1023.44 1023.39 1023.00 1021.93 1022.27 1022.05 1021.96 1022.03 1021.87 1021.80 1021.71 1021.59 1021.54 1021.43 1021.35 1021.29 1021.13 1020.80 1020.46 1020.17 1019.80 1019.43 1019.12 1018.87 1018.73 1018.67 1018.63 1018.57 1018.51
1021.72 1021.87 1021.97 1022.12 1022.27 1022.45 1022.53 1022.69 1022.88 1023.04 1023.17 1023.15 1023.27 1023.36 1023.44 1023.48 1023.44 1022.97 1021.41 1021.61 1021.96 1021.71 1021.47 1021.47 1021.36 1021.13 1021.05 1021.00 1020.78 1020.78 1020.65 1020.45 1020.10 1019.77 1019.50 1019.28 1018.99 1018.74 1018.51 1018.37 1018.39 1018.45 1018.42
1021.72 1021.83 1021.95 1022.06 1022.23 1022.42 1022.57 1022.74 1022.90 1023.05 1023.19 1023.28 1023.25 1023.22 1023.01 1022.84 1022.58 1022.62 1021.89 1021.37 1021.08 1021.20 1021.17 1020.92 1020.70 1020.70 1020.67 1020.48 1020.38 1020.23 1020.04 1019.89 1019.61 1019.40 1019.14 1018.83 1018.73 1018.50 1018.33 1018.15 1018.05 1018.07 1018.17
1021.80 1021.97 1022.02 1022.13 1022.33 1022.62 1022.77 1022.92 1022.99 1023.02 1023.04 1023.04 1022.89 1022.80 1022.89 1022.77 1022.61 1022.49 1022.18 1021.31 1020.92 1020.69 1020.47 1020.37 1020.23 1020.07 1020.01 1019.93 1019.64 1019.76 1019.57 1019.36 1019.19 1018.83 1018.74 1018.67 1018.60 1018.53 1018.35 1018.13 1017.91 1017.81 1017.78
1021.70 1022.07 1022.23 1022.35 1022.50 1022.65 1022.74 1022.80 1022.79 1022.77 1022.82 1022.85 1022.83 1022.76 1022.62 1022.53 1022.53 1022.35 1022.02 1021.63 1020.60 1019.79 1019.63 1019.34 1019.58 1019.69 1019.44 1019.29 1019.15 1019.04 1018.82 1018.79 1018.65 1018.44 1018.36 1018.32 1018.25 1018.23 1018.20 1018.07 1017.93 1017.76 1017.61
1021.93 1022.21 1022.35 1022.43 1022.54 1022.58 1022.64 1022.73 1022.69 1022.61 1022.64 1022.63 1022.48 1022.37 1022.28 1022.11 1022.05 1021.91 1021.76 1021.53 1021.12 1019.66 1018.60 1018.00 1018.49 1018.97 1018.95 1018.69 1018.45 1018.49 1018.10 1017.90 1018.07 1018.02 1017.90 1017.82 1017.83 1017.71 1017.65 1017.60 1017.56 1017.59 1017.50
1021.98 1022.12 1022.24 1022.33 1022.40 1022.43 1022.47 1022.58 1022.53 1022.46 1022.42 1022.35 1022.22 1021.88 1021.71 1021.63 1021.44 1021.36 1021.21 1020.99 1020.76 1020.15 1018.99 1017.79 1018.26 1018.39 1018.56 1018.17 1017.75 1017.69 1017.41 1017.50 1017.36 1017.22 1017.29 1017.11 1017.14 1017.10 1017.02 1017.04 1016.99 1017.05 1017.07
1022.04 1022.20 1022.33 1022.40 1022.41 1022.41 1022.40 1022.41 1022.25 1022.12 1021.96 1021.68 1021.64 1021.44 1021.14 1021.01 1020.72 1020.52 1020.43 1020.27 1019.98 1019.70 1018.84 1016.79 1017.99 1017.81 1017.62 1017.37 1017.03 1016.91 1016.78 1016.61 1016.45 1016.34 1016.41 1016.45 1016.49 1016.40 1016.40 1016.38 1016.43 1016.37 1016.43
1022.20 1022.24 1022.27 1022.24 1022.19 1022.09 1022.01 1021.94 1021.72 1021.51 1021.26 1020.98 1020.80 1020.67 1020.35 1020.24 1019.88 1019.67 1019.54 1019.23 1018.86 1018.70 1018.34 1017.35 1017.19 1016.90 1016.79 1016.66 1016.22 1016.01 1015.89 1015.89 1015.65 1015.67 1015.70 1015.61 1015.63 1015.62 1015.70 1015.72 1015.81 1015.86 1015.96
1021.95 1021.96 1022.03 1021.98 1021.91 1021.83 1021.66 1021.45 1021.22 1020.96 1020.69 1020.36 1020.08 1019.82 1019.60 1019.40 1018.96 1018.69 1018.49 1018.17 1017.92 1017.72 1017.47 1017.17 1016.30 1016.14 1015.83 1015.82 1015.61 1015.31 1015.25 1015.14 1015.01 1014.87 1014.88 1014.73 1014.69 1014.77 1014.78 1014.89 1015.02 1015.11 1015.32
1021.89 1021.78 1021.71 1021.68 1021.56 1021.40 1021.26 1021.00 1020.61 1020.25 1019.92 1019.62 1019.24 1019.00 1018.64 1018.31 1018.00 1017.73 1017.40 1017.03 1016.81 1016.82 1016.81 1016.69 1016.31 1015.58 1015.43 1015.07 1015.02 1014.69 1014.30 1014.39 1014.26 1013.93 1013.89 1013.86 1013.86 1013.97 1014.00 1014.00 1014.12 1014.26 1014.55
1021.65 1021.58 1021.45 1021.25 1021.15 1021.03 1020.65 1020.34 1019.89 1019.36 1018.99 1018.60 1018.27 1017.94 1017.61 1017.35 1017.06 1016.51 1016.16 1016.08 1016.28 1015.83 1015.67 1015.37 1015.15 1015.07 1014.74 1014.51 1014.44 1014.13 1013.74 1013.68 1013.47 1013.35 1013.11 1013.06 1013.08 1013.00 1012.95 1013.10 1013.19 1013.30 1013.62
1021.28 1021.15 1020.96 1020.91 1020.72 1020.46 1020.12 1019.70 1019.23 1018.57 1018.07 1017.67 1017.21 1016.97 1016.61 1016.42 1016.04 1015.65 1015.19 1014.69 1014.48 1014.31 1014.21 1014.01 1014.20 1014.10 1013.85 1013.89 1013.83 1013.47 1013.24 1013.10 1012.79 1012.26 1012.32 1012.12 1012.41 1012.21 1012.27 1012.38 1012.42 1012.70 1012.81
1020.99 1020.87 1020.68 1020.51 1020.23 1019.93 1019.56 1018.99 1018.40 1017.79 1017.32 1016.97 1016.65 1016.33 1015.92 1015.57 1015.29 1014.95 1014.58 1014.21 1013.90 1013.63 1013.30 1013.07 1012.93 1012.92 1012.74 1012.54 1012.59 1012.42 1012.28 1012.02 1011.54 1011.55 1011.87 1011.37 1011.68 1011.70 1011.54 1011.51 1011.79 1011.99 1012.22
1020.64 1020.54 1020.36 1020.19 1019.85 1019.45 1018.90 1018.30 1017.66 1016.94 1016.60 1016.30 1015.95 1015.62 1015.24 1014.74 1014.35 1014.12 1013.82 1013.41 1013.02 1012.77 1012.52 1012.42 1012.01 1011.59 1011.53 1011.41 1011.45 1011.24 1010.99 1010.77 1010.57 1010.49 1010.87 1010.68 1010.61 1010.43 1010.75 1010.71 1010.90 1011.25 1011.42
1020.38 1020.21 1020.10 1019.75 1019.32 1018.69 1018.24 1017.63 1016.89 1016.35 1015.93 1015.58 1015.13 1014.85 1014.40 1013.95 1013.45 1013.04 1012.58 1012.27 1012.19 1011.88 1011.68 1011.26 1010.78 1010.54 1010.38 1010.07 1010.01 1010.39 1009.82 1009.87 1009.48 1009.35 1009.86 1010.04 1009.53 1009.53 1009.69 1009.85 1009.81 1010.15 1010.40
1020.25 1020.03 1019.65 1019.21 1018.71 1018.10 1017.59 1017.08 1016.27 1015.69 1015.33 1014.81 1014.19 1013.97 1013.71 1013.20 1012.77 1012.14 1011.76 1011.44 1011.17 1011.07 1011.09 1010.81 1010.58 1010.20 1009.84 1009.32 1009.07 1008.97 1009.04 1008.94 1008.87 1008.86 1009.00 1009.38 1009.17 1009.42 1009.09 1008.87 1008.96 1008.96 1009.11
Wind_Speed
6 6 5 5 5 5 5 6 6 7 8 9 8 9 9 8 7 5 4 15 14 11 9 9 8 7 7 8 8 9 9 9 8 8 8 6 1 4 4 9 9 7 6
6 6 6 5 5 4 4 5 5 6 6 6 8 9 9 7 7 8 6 7 16 18 17 15 11 7 6 8 8 8 9 9 8 7 7 6 5 2 7 7 8 8 8
7 7 5 5 4 4 5 4 5 5 5 5 7 7 6 6 5 7 6 6 7 15 17 16 16 15 12 10 9 8 8 8 8 7 7 7 6 4 3 8 10 10 10
8 6 5 4 4 3 3 3 3 4 4 5 5 6 5 4 5 6 5 6 6 7 9 16 16 16 15 13 11 11 11 9 7 8 6 6 7 5 5 3 7 10 11
7 6 5 4 4 3 2 2 3 2 2 3 4 5 4 3 4 4 7 5 6 7 6 11 14 16 15 14 12 12 12 12 11 9 5 5 5 5 6 6 4 6 12
7 6 4 5 4 3 3 3 2 2 2 3 4 5 2 3 1 2 5 2 4 5 7 7 7 8 14 14 13 13 12 12 12 11 10 5 5 5 5 5 5 4 7
7 6 4 5 5 4 4 2 2 1 1 3 3 4 2 3 1 5 2 1 2 1 5 4 4 5 6 12 12 13 13 13 11 11 11 9 7 7 7 5 4 5 5
8 7 6 5 5 3 4 4 3 2 1 0 1 0 3 2 2 4 6 4 4 3 5 4 6 7 6 6 7 13 14 14 12 12 11 10 10 9 8 6 4 5 3
7 7 6 5 5 4 4 4 4 5 3 2 2 0 2 3 4 4 3 5 6 4 8 5 9 7 8 7 9 9 10 13 15 14 12 11 10 11 11 9 7 6 7
6 5 5 5 4 4 5 4 4 4 4 4 2 3 4 4 5 7 3 5 7 9 8 8 8 9 9 7 10 13 15 15 15 15 16 13 13 12 12 12 10 8 7
1 4 5 5 5 4 4 5 5 5 4 3 3 3 5 4 6 7 11 7 7 9 9 8 8 8 10 9 8 10 15 16 16 15 16 17 16 15 14 13 13 11 9
2 3 2 2 2 2 3 3 3 4 4 4 4 5 6 6 7 7 10 12 13 9 9 10 9 8 8 8 11 15 17 17 16 15 15 14 13 14 16 16 15 14 13
2 3 4 4 3 3 2 2 3 5 5 5 6 6 6 7 8 8 10 12 13 11 9 8 9 8 8 8 10 15 17 17 16 14 13 12 11 12 13 15 17 17 16
4 4 4 4 4 3 3 3 3 4 5 5 8 7 7 7 7 8 10 11 13 13 12 16 7 8 9 9 12 17 13 17 16 15 16 18 17 17 16 17 17 17 17
4 4 4 4 3 2 2 3 4 6 6 6 8 9 8 8 8 8 9 9 11 14 14 14 9 8 9 9 12 13 13 15 18 19 19 20 21 21 20 20 19 19 19
4 4 3 2 2 3 4 4 5 6 7 7 7 10 10 8 9 8 9 10 10 12 15 13 9 10 11 12 14 14 14 19 21 21 20 20 20 20 21 21 22 21 20
3 2 1 3 4 5 6 6 7 8 10 10 9 10 12 11 9 9 9 9 10 10 14 15 12 13 16 15 14 14 14 14 12 21 21 22 21 21 21 21 21 21 22
0 2 3 5 6 7 7 8 10 10 11 12 12 12 13 10 14 12 10 13 13 14 13 20 14 13 15 13 16 16 12 12 12 17 22 23 23 24 24 23 23 22 22
3 3 5 6 7 8 9 10 11 12 12 13 13 13 14 15 14 12 12 12 11 11 12 13 14 12 12 11 12 14 12 13 12 18 22 23 22 22 22 23 23 22 20
4 5 6 7 8 9 9 10 11 12 13 13 14 15 16 16 15 15 14 15 13 11 11 10 10 13 11 10 9 11 10 9 10 10 14 16 15 18 21 23 23 22 20
5 6 7 8 8 8 7 10 12 14 16 16 16 15 15 17 22 22 11 10 12 11 10 10 9 9 9 7 8 9 9 6 9 10 9 8 9 9 11 19 20 21 21
6 7 8 8 9 7 14 21 20 15 16 16 15 14 13 18 19 22 23 24 18 13 10 6 6 8 10 7 8 8 8 7 6 7 9 9 7 9 9 9 17 17 18
7 8 8 8 9 11 19 22 22 14 12 11 11 10 11 10 16 14 20 23 21 22 20 13 12 9 11 11 12 13 13 11 12 10 7 10 6 9 9 9 17 20 23
7 8 8 8 11 11 20 21 21 12 9 10 11 11 12 15 15 14 13 13 14 16 14 11 13 14 13 13 14 14 16 16 13 11 11 11 10 11 10 10 17 18 20
7 7 8 11 13 13 18 19 19 11 11 13 12 14 14 16 19 24 15 13 12 12 14 23 22 22 25 26 22 11 13 11 12 12 9 10 12 11 9 10 10 17 21
7 7 10 12 14 13 16 18 18 9 10 9 13 12 21 17 20 21 13 12 12 11 9 10 12 14 17 19 26 17 9 9 8 4 7 7 9 7 4 9 10 10 11
Wind_Direction
124 119 110 102 100 102 92 86 73 63 54 49 45 38 31 30 32 37 28 25 25 17 10 2 358 359 8 25 21 14 10 4 360 4 9 352 296 238 210 184 179 181 181
137 129 123 110 99 88 81 74 67 61 55 44 43 34 27 39 49 41 38 36 40 37 32 22 21 3 1 15 15 13 4 4 1 356 1 10 357 268 216 214 208 200 201
143 137 130 124 115 98 93 91 76 59 50 38 36 31 31 40 50 42 34 34 30 36 32 33 28 27 24 16 14 12 9 360 5 1 2 12 18 15 274 216 223 216 210
150 141 137 134 130 115 103 77 57 60 42 26 21 23 37 59 41 38 41 35 33 21 24 28 33 31 21 14 11 5 356 4 353 1 353 357 19 14 18 267 239 225 226
160 151 153 147 148 129 105 102 81 56 40 18 4 14 26 37 36 82 58 52 44 33 21 24 20 18 14 11 7 7 4 358 348 342 0 351 359 5 13 21 278 243 225
171 168 162 158 164 161 163 166 155 95 41 5 344 354 0 7 349 147 30 41 45 36 24 18 7 3 3 3 0 358 357 350 342 339 339 318 330 340 349 359 5 338 254
183 182 178 182 188 200 195 178 132 147 108 10 322 338 313 329 267 180 3 178 356 12 5 4 4 354 344 342 342 338 336 334 335 332 324 314 313 316 314 315 340 333 344
196 196 197 198 200 200 195 193 191 171 162 319 50 304 343 299 110 221 304 271 300 284 316 322 336 331 326 314 317 324 321 314 313 313 312 308 299 291 291 302 296 313 316
209 213 209 211 209 214 216 206 206 209 218 163 191 318 285 288 323 289 275 285 291 279 311 296 313 305 309 302 303 302 297 302 303 296 291 290 286 285 285 283 279 283 291
224 229 236 229 225 212 216 211 202 210 203 210 196 226 248 274 286 297 245 283 274 293 286 295 297 297 295 292 289 286 289 288 289 285 280 277 274 277 272 270 269 269 280
203 224 221 214 216 213 222 213 194 205 212 231 226 201 225 234 250 262 292 284 267 278 289 286 284 285 290 285 277 279 281 282 280 279 275 270 269 266 265 260 258 260 260
83 72 105 165 176 188 192 188 192 210 223 236 234 230 239 254 267 259 274 284 286 286 280 285 281 280 276 277 276 273 274 277 276 275 271 264 265 267 262 258 256 252 253
122 106 110 118 113 109 120 157 207 224 227 238 245 252 249 250 261 266 275 281 282 283 286 271 276 274 270 269 269 270 273 269 268 263 263 260 261 269 271 268 261 256 253
135 134 121 117 120 140 166 201 240 257 256 257 262 256 264 260 256 253 259 281 284 283 277 270 272 269 274 272 270 268 267 259 261 262 270 269 267 264 262 263 262 262 260
127 123 128 143 167 207 251 259 271 276 277 276 270 268 263 264 263 261 257 256 264 281 282 278 281 262 267 268 267 269 263 256 260 269 271 266 263 259 259 256 253 254 253
133 154 174 207 253 279 282 276 274 272 271 271 268 266 267 267 268 264 258 255 247 259 275 274 284 273 268 268 269 262 260 258 259 263 267 262 259 259 256 254 252 250 251
179 205 258 290 282 282 284 276 271 271 270 274 268 268 272 274 273 270 262 256 251 246 261 279 279 279 273 267 263 260 268 263 264 261 263 262 261 258 257 254 254 250 248
267 284 274 278 286 284 282 277 279 280 278 277 277 270 274 279 279 271 262 261 257 255 258 273 278 272 270 264 268 269 264 265 260 257 260 257 256 254 251 248 248 248 248
248 269 282 282 285 284 282 277 276 277 277 275 276 271 274 278 276 270 265 264 263 260 258 261 267 269 269 266 269 267 264 261 264 263 258 259 255 251 247 243 242 243 243
279 284 283 280 278 282 282 282 278 279 276 274 273 269 271 273 270 271 267 263 261 267 266 264 259 271 275 270 257 268 267 251 262 256 251 252 252 249 250 246 240 238 237
284 283 282 283 291 290 284 289 286 285 283 282 277 272 269 269 267 266 255 242 240 241 236 239 246 251 262 264 241 258 265 269 257 249 251 246 244 243 244 240 242 239 233
293 296 295 296 294 288 294 299 297 292 288 283 280 275 273 273 282 285 285 286 288 276 266 250 246 237 245 249 253 246 252 255 269 237 233 253 237 246 244 241 240 243 234
299 296 296 296 292 300 300 299 297 292 286 284 285 281 279 276 278 283 287 288 292 290 282 277 274 257 251 239 242 256 253 245 244 242 237 262 234 246 250 248 241 239 240
300 300 296 291 296 297 299 301 297 293 292 284 279 276 272 275 275 273 265 265 265 272 272 270 268 270 265 267 263 257 255 255 257 252 245 251 252 246 247 245 244 238 239
303 300 295 299 300 299 298 299 308 298 293 291 288 278 276 275 276 279 276 278 272 261 267 273 275 278 275 273 267 246 239 234 241 245 237 238 249 254 243 243 239 236 237
296 302 303 298 294 294 294 305 306 298 290 280 283 290 283 286 291 290 280 285 288 295 289 268 274 279 279 276 269 267 246 232 245 236 217 228 238 232 232 233 238 241 232